Russell, KS

1:11 PM CDT on March 26, 2017 (GMT -0500)
Russell Municipal

Weather History for KRSL - September, 2012

Change the Weather History Date:

Tuesday, September 4, 2012

  Actual Average Record
Temperature  
Mean Temperature 83 °F -  
Max Temperature 100 °F 86 °F 104 °F (1954)
Min Temperature 66 °F 62 °F 45 °F (1953)
Cooling Degree Days 18    
Growing Degree Days 33 (Base 50)    
Moisture  
Dew Point 61 °F    
Average Humidity 65    
Maximum Humidity 94    
Minimum Humidity 21    
Precipitation  
Precipitation 0.69 in - - ()
Sea Level Pressure  
Sea Level Pressure 29.84 in    
Wind  
Wind Speed 10 mph (SSW)    
Max Wind Speed 52 mph    
Max Gust Speed 68 mph    
Visibility 8 miles    
Events Fog , Rain , Thunderstorm    
Averages and records for this station are not official NWS values.
T = Trace of Precipitation, MM = Missing Value Source: NWS Daily Summary

Daily Weather History Graph

Daily Weather History Graph

Search for Another Location

Airport or City:

Trip Planner

Search our weather history database for the weather conditions in past years. The results will help you decide how hot, cold, wet, or windy it might be!

Date:

Astronomy

Sep. 04, 2012 Rise Set
Actual Time 7:07 AM CDT 8:00 PM CDT
Civil Twilight 6:40 AM CDT 8:27 PM CDT
Nautical Twilight 6:08 AM CDT 8:59 PM CDT
Astronomical Twilight 5:34 AM CDT 9:32 PM CDT
Moon 9:57 PM CDT (9/4) 11:12 AM CDT (9/4)
Length of Visible Light 13h 46m
Length of Day
12h 52m
Waning Gibbous, 83% of the Moon is Illuminated
Sep 4
Waning Gibbous
Sep 8
Last Quarter
Sep 15
New
Sep 22
First Quarter
Sep 29
Full

Hourly Weather History & Observations

Time (CDT) Temp. Heat Index Dew Point Humidity Pressure Visibility Wind Dir Wind Speed Gust Speed Precip Events Conditions
12:53 AM 72.0 °F - 62.1 °F 71% 29.84 in 10.0 mi SSW 3.5 mph - N/A   Clear
1:53 AM 73.0 °F - 61.0 °F 66% 29.84 in 10.0 mi South 4.6 mph - N/A   Clear
2:53 AM 69.1 °F - 61.0 °F 75% 29.84 in 10.0 mi WNW 5.8 mph - N/A   Clear
3:53 AM 66.0 °F - 61.0 °F 84% 29.84 in 10.0 mi NW 5.8 mph - N/A   Clear
4:53 AM 66.0 °F - 59.0 °F 78% 29.83 in 10.0 mi WNW 8.1 mph - N/A   Clear
6:53 AM 66.0 °F - 57.9 °F 75% 29.86 in 10.0 mi West 8.1 mph - N/A   Clear
7:53 AM 69.1 °F - 57.9 °F 68% 29.86 in 10.0 mi WSW 4.6 mph - N/A   Clear
8:53 AM 75.0 °F - 57.9 °F 55% 29.86 in 10.0 mi WSW 5.8 mph - N/A   Clear
9:53 AM 84.9 °F 83.9 °F 57.0 °F 38% 29.86 in 10.0 mi WNW 5.8 mph - N/A   Clear
10:53 AM 91.0 °F 90.0 °F 57.9 °F 33% 29.86 in 10.0 mi WSW 10.4 mph - N/A   Clear
11:53 AM 96.1 °F - 52.0 °F 22% 29.84 in 10.0 mi Variable 6.9 mph - N/A   Clear
12:53 PM 98.1 °F - 52.0 °F 21% 29.82 in 10.0 mi Variable 4.6 mph - N/A   Clear
1:53 PM 100.0 °F 97.9 °F 53.1 °F 21% 29.80 in 10.0 mi South 4.6 mph 17.3 mph N/A   Clear
2:53 PM 100.0 °F 97.9 °F 54.0 °F 21% 29.78 in 10.0 mi SW 11.5 mph - N/A   Clear
3:53 PM 99.0 °F 97.7 °F 55.9 °F 24% 29.76 in 10.0 mi SW 13.8 mph 23.0 mph N/A   Partly Cloudy
4:53 PM 99.0 °F 97.7 °F 55.9 °F 24% 29.75 in 10.0 mi SSE 13.8 mph 24.2 mph N/A   Clear
5:53 PM 95.0 °F 93.7 °F 57.0 °F 28% 29.73 in 10.0 mi South 16.1 mph 25.3 mph N/A   Clear
6:23 PM 93.2 °F 92.6 °F 59.0 °F 32% 29.79 in 10.0 mi South 10.4 mph - N/A Thunderstorm Clear
6:38 PM 75.2 °F - 60.8 °F 61% 29.85 in 6.0 mi NW 51.8 mph 67.9 mph N/A Thunderstorm Unknown
6:46 PM 69.8 °F - 64.4 °F 83% 29.86 in 4.0 mi West 13.8 mph 67.9 mph 0.01 in Rain , Thunderstorm Thunderstorms and Rain
6:53 PM 69.1 °F - 63.0 °F 81% 29.86 in 3.0 mi WNW 33.4 mph 44.9 mph 0.04 in Rain , Thunderstorm Heavy Thunderstorms and Rain
6:56 PM 68.0 °F - 64.4 °F 88% 29.91 in 1.8 mi WNW 27.6 mph 44.9 mph 0.05 in Rain , Thunderstorm Heavy Thunderstorms and Rain
7:05 PM 66.2 °F - 64.4 °F 94% 29.91 in 0.2 mi SSW 19.6 mph 38.0 mph 0.50 in Fog , Rain , Thunderstorm Heavy Thunderstorms and Rain
7:09 PM 66.2 °F - 64.4 °F 94% 29.90 in 0.2 mi SE 13.8 mph 38.0 mph 0.62 in Fog , Rain , Thunderstorm Heavy Thunderstorms and Rain
7:13 PM 66.2 °F - 64.4 °F 94% 29.87 in 0.5 mi East 17.3 mph 25.3 mph 0.64 in Fog , Rain , Thunderstorm Heavy Thunderstorms and Rain
7:16 PM 68.0 °F - 64.4 °F 88% 29.87 in 1.0 mi ESE 19.6 mph 27.6 mph 0.64 in Rain , Thunderstorm Light Thunderstorms and Rain
7:19 PM 69.8 °F - 64.4 °F 83% 29.87 in 3.0 mi East 15.0 mph 27.6 mph 0.64 in Rain , Thunderstorm Light Thunderstorms and Rain
7:27 PM 69.8 °F - 64.4 °F 83% 29.86 in 10.0 mi ENE 16.1 mph 25.3 mph 0.64 in Thunderstorm Thunderstorm
7:38 PM 69.8 °F - 66.2 °F 88% 29.87 in 10.0 mi NE 15.0 mph - 0.64 in   Partly Cloudy
7:53 PM 69.1 °F - 64.9 °F 87% 29.81 in 10.0 mi East 12.7 mph - 0.64 in   Partly Cloudy
8:53 PM 70.0 °F - 66.0 °F 87% 29.84 in 10.0 mi NNW 13.8 mph - 0.00 in Rain , Thunderstorm Light Thunderstorms and Rain
9:12 PM 69.8 °F - 64.4 °F 83% 29.86 in 10.0 mi East 11.5 mph - 0.01 in Rain Light Rain
9:22 PM 69.8 °F - 64.4 °F 83% 29.84 in 10.0 mi East 13.8 mph - 0.01 in Thunderstorm Thunderstorm
9:35 PM 71.6 °F - 62.6 °F 73% 29.83 in 10.0 mi East 15.0 mph - 0.01 in Thunderstorm Clear
9:53 PM 72.0 °F - 63.0 °F 73% 29.79 in 10.0 mi ESE 11.5 mph - 0.01 in   Clear
10:53 PM 70.0 °F - 62.1 °F 76% 29.78 in 10.0 mi ESE 11.5 mph - N/A   Clear
11:53 PM 69.1 °F - 63.0 °F 81% 29.77 in 10.0 mi SSE 9.2 mph - N/A   Clear